Location: Bilsen
(53.7722°N, 9.8765°E)
Time: 17:32:12
(UTC+00:00)

Cosmos 1842 Rocket - Pass Details

Date: 18 February 2020
Orbit: 604 x 635 km, 82.5° (Epoch: 31 March)

Event Time Altitude Azimuth Distance (km) Brightness Sun altitude
Exits shadow 04:02:56 - 177° (S) 2,466 6.5 -23.0°
Reaches altitude 10° 04:04:04 10° 175° (S) 2,012 6.1 -22.8°
Maximum altitude 04:08:27 59° 96° (E) 735 4.1 -22.2°
Drops below altitude 10° 04:12:54 10° 17° (NNE) 2,035 6.5 -21.5°
Sets 04:15:11 0° 14° (NNE) 2,949 7.3 -21.2°
